Regional Weather Roundup
Issued by NWS Northern Indiana

Home | Current Version | Previous Version | Graphics & Text | Print | Product List | Glossary On
Versions: 1 2 3 4 5 6 7 8 9 10 11 12 13 14 15 16 17 18 19 20 21 22 23 24 25 26 27 28 29 30 31 32 33 34 35 36 37 38 39 40 41 42 43 44 45 46 47 48 49 50
000
ASUS43 KIWX 270110
RWRIWX

KIWX WEATHER ROUNDUP
NATIONAL WEATHER SERVICE NORTHERN INDIANA
900 PM EDT SUN APR 26 2015

NOTE: "FAIR" INDICATES FEW OR NO CLOUDS BELOW 12,000 FEET WITH NO
SIGNIFICANT WEATHER AND/OR OBSTRUCTIONS TO VISIBILITY.

* THESE STATIONS ARE NOT UNDER NWS QUALITY CONTROL. THEY ALSO MAY NOT
  REPORT WEATHER SUCH AS PRECIPITATION OR FOG.

INZ001>027-270200-
NORTHERN INDIANA

CITY           SKY/WX    TMP DP  RH WIND       PRES   REMARKS
GARY*          CLEAR     45  27  49 N17       30.02R
VALPARAISO     CLEAR     41  28  60 N7        29.99S
MICHIGAN CITY* CLEAR     41  27  56 N5        29.99S
LAPORTE*       CLEAR     44  29  54 N9G17     29.99R
KNOX*          CLEAR     41  10  28 N9        29.97S
SOUTH BEND     CLEAR     46  24  42 N12       29.97R
GOSHEN         CLEAR     49  28  44 NW15G22   29.93R
MONTICELLO*    CLEAR     46  32  58 N13       29.96R
LOGANSPORT*    CLEAR     46  28  49 NW12      29.96R
ROCHESTER*     CLEAR     50  30  46 NW12      29.95R
WARSAW*        CLEAR     46  30  53 NW10      29.93R
ANGOLA*        CLOUDY    52  36  54 CALM      29.90S
FORT WAYNE     PTCLDY    49  33  54 N8        29.91R
HUNTINGTON*    CLEAR     50  32  50 N3        29.91R
PERU/GRISSOM   CLEAR     50  34  54 NW12      29.93R
MARION*        PTCLDY    51  31  45 N6        29.92R

$$
INZ028>050-270200-
CENTRAL INDIANA

CITY           SKY/WX    TMP DP  RH WIND       PRES   REMARKS
LAFAYETTE      CLEAR     48  30  49 N14       29.97R
KOKOMO*        CLEAR     50  34  53 N14       29.93R
MUNCIE*        MOCLDY    51  36  56 CALM      29.90S
INDIANAPOLIS   PTCLDY    52  32  46 N5        29.91R

$$
MIZ043>046-050>051-056>058-064>065-071>073-077>080-270200-
SOUTHWEST LOWER MICHIGAN

CITY           SKY/WX    TMP DP  RH WIND       PRES   REMARKS
BATTLE CREEK   CLOUDY    53  31  42 W9        29.91R
BENTON HARBOR  CLEAR     42  29  59 VRB5      29.97S
COLDWATER*     CLOUDY    53  29  40 NW6       29.90R
HILLSDALE*     PTCLDY    51  29  42 CALM      29.89S
HOLLAND        PTCLDY    50  27  40 NW7       29.95S
GRAND RAPIDS   PTCLDY    51  26  37 N10       29.93R
KALAMAZOO      PTCLDY    51  28  41 NW12      29.93R
STURGIS*       CLOUDY    52  28  40 CALM      29.91R
THREE RIVERS*  FAIR      49  29  44 NW7       29.92S

$$
OHZ001>008-015>018-024>025-270200-
NORTHWEST OHIO

CITY           SKY/WX    TMP DP  RH WIND       PRES   REMARKS
WAUSEON*       MOCLDY    52  30  43 NE5       29.89S
DEFIANCE       CLOUDY    54  30  40 CALM      29.90S
FINDLAY        MOCLDY    51  31  46 E7        29.88R
TOLEDO EXPRESS PTCLDY    49  29  46 E6        29.89S
TOLEDO METCALF PTCLDY    50  32  50 E5        29.90S
LIMA           CLOUDY    51  34  52 NE3       29.88R

$$
AND FOR LAKE MICHIGAN COASTAL AND OPEN LAKE BUOY OBSERVATIONS

STATION/POSITION TEMP    WIND        PRES    VSBY  WAVE
                 AIR SEA DIR/SP/G                  HT/PER
                 (F)     (DEG/KT/KT) (MB)    (MI)  (FT/S)
CALUMET HARBOR    44     340/  8/ 10   N/A
MICHIGAN CITY     41      20/  9/ 11   N/A
BURNS HARBOR      44      30/ 11/ 16 1016.3S
SAINT JOSEPH      44     360/ 11/ 14 1014.9S
MICHIGAN CITY     41 45   40/  6/ 10   N/A           3/ 4

$$
&&


USA.gov is the U.S. government's official web portal to all federal, state and local government web resources and services.